321  
FPUS83 KFGF 222031  
OPUFGF  
PRAIRIE TO PINES WEATHER ROUNDUP  
NATIONAL WEATHER SERVICE EASTERN NORTH DAKOTA/GRAND FORKS ND  
300 PM CDT MON JUL 22 2019  
 
**SATELLITE DATA USED TO AUGMENT SKY COVER AT AUTOMATED STATIONS**  
***** WEATHER ACROSS EASTERN NORTH DAKOTA *****  
 
CITY SKY/WX TMP DP RH WIND PRES REMARKS  
GRAND FORKS FAIR 78 54 43 NW9 30.24F  
GRND FORKS AFB FAIR 78 55 45 N9 30.26F  
GRND FORKS NWS N/A 80 57 45 MISG 30.21F  
BUXTON N/A 78 56 46 NW7 N/A  
DEVILS LAKE FAIR 76 54 46 NW8 30.29F  
FARGO FAIR 76 51 41 W6 30.27F  
WAHPETON ARPT FAIR 73 50 43 N8 30.29S  

 
 
***** WEATHER ACROSS CENTRAL AND WESTERN NORTH DAKOTA *****  
 
CITY SKY/WX TMP DP RH WIND PRES REMARKS  
JAMESTOWN FAIR 74 58 57 NW6 30.30F  
BISMARCK FAIR 78 52 40 SE8 30.31S  
MINOT FAIR 82 52 35 VRB5 30.28F  
MINOT AFB FAIR 79 54 41 SW3 30.26  
GARRISON N/A 77 52 41 S5 30.29F  
WILLISTON FAIR 82 51 34 SE8 30.27F  
DICKINSON FAIR 78 52 40 S8 30.29F  
HETTINGER FAIR 76 54 46 SE9 30.31F  

 
 
***** OTHER OBSERVATIONS NORTHEAST NORTH DAKOTA *****  
 
CITY SKY/WX TMP DP RH WIND PRES REMARKS  
WALHALLA MOCLDY 77 57 50 NW9 30.25F  
LANGDON MOCLDY N/A N/A N/A NW12 30.29F  
CAVALIER FAIR 77 55 47 W12G17 30.24F  
GRAFTON FAIR 81 54 39 NW8G15 30.26F  
CANDO FAIR 77 55 47 NW9 30.30F  
FORT TOTTEN N/A 81 56 42 N3 29.95  
ROLLA FAIR 75 57 53 NW5 30.30S  
RUGBY FAIR 75 57 53 W5 30.28S  
***** THE ABOVE OBSERVATIONS ARE NON NWS ARE NOT QUALITY  
CONTROLLED AND MAY MIS-REPORT RAIN FOR SNOW...  

 
 
***** OTHER OBSERVATIONS SOUTHEAST NORTH DAKOTA *****  
 
CITY SKY/WX TMP DP RH WIND PRES REMARKS  
COOPERSTOWN FAIR 75 55 50 NW5G14 30.30S  
VALLEY CITY FAIR 75 55 50 N8 30.31F  
OAKES FAIR 73 73 100 CALM 30.31F  
GWINNER CLEAR 75 54 46 N9 30.30F  
SHEYENNE NWR N/A 77 51 40 N3 29.95S  
BUFFALO N/A 76 48 36 W5 N/A  
WYNDMERE NOT AVBL  
***** THE ABOVE OBSERVATIONS ARE NON NWS ARE NOT QUALITY  
CONTROLLED AND MAY MIS-REPORT RAIN FOR SNOW...  

 
 
***** WEATHER ACROSS NORTHERN MINNESOTA *****  
 
CITY SKY/WX TMP DP RH WIND PRES REMARKS  
FLAG ISLAND N/A 75 52 43 W15 30.18F  
WARROAD FAIR 77 57 50 W10 30.22F  
ROSEAU FAIR 79 57 47 NW10 30.23F  
HALLOCK FAIR 79 54 41 NW6 30.24F  
THF RVR FALLS FAIR 75 54 47 NW8 30.27F  
HALSTAD NOT AVBL  
FOSSTON FAIR 73 50 43 NW9 30.28S  
BAUDETTE FAIR 77 54 44 W14G23 30.22F  
WASKISH FAIR 75 55 50 W12 30.23S  
CROOKSTON PTSUNNY 77 55 47 W5 30.26S  

 
***** WEATHER ACROSS CENTRAL AND WEST MINNESOTA *****  
 
CITY SKY/WX TMP DP RH WIND PRES REMARKS  
BEMIDJI FAIR 75 51 43 W13 30.26S  
PARK RAPIDS PTSUNNY 74 50 42 N13G21 30.26F  
WADENA PTSUNNY 73 54 49 NW5 30.27S  
DETROIT LAKES FAIR 73 50 43 NW9 30.30S  
MOORHEAD FAIR 75 52 43 NW8 30.28F  
FERGUS FALLS FAIR 73 52 46 N6 30.28S  
ELBOW LAKE NOT AVBL  
MORRIS MN FAIR 75 46 35 N9 30.23S  
STAPLES PTSUNNY 73 48 40 N8 30.26S  
WHEATON NOT AVBL  

 
***** WEATHER ELSEWHERE ACROSS MINNESOTA *****  
 
CITY SKY/WX TMP DP RH WIND PRES REMARKS  
DULUTH FAIR 77 51 40 NW14 30.17F  
INTRNTL FALLS FAIR 76 56 49 W13G29 30.18F  
ELY PTSUNNY 73 50 43 NW9G18 30.15S  
CLOQUET FAIR 75 48 38 NW12G23 30.18F  
BRAINERD FAIR 78 51 38 N10 30.24F  
HIBBING FAIR 76 53 44 NW20 30.18F  
ALEXANDRIA FAIR 77 50 38 CALM 30.29F  
SAINT CLOUD FAIR 77 46 33 N9G18 30.23F  
MINNEAPOLIS FAIR 77 49 37 N8G17 30.21F  

 
 
***** WEATHER ACROSS SOUTH DAKOTA *****  
 
CITY SKY/WX TMP DP RH WIND PRES REMARKS  
SIOUX FALLS FAIR 77 53 43 N13 30.29F  
BROOKINGS FAIR 73 53 49 N9 30.31F  
WATERTOWN PTSUNNY 74 53 48 NW6 30.30S  
HURON FAIR 77 58 51 N5 30.29F  
SISSETON N/A 74 52 46 VRB3 30.28F  
ABERDEEN PTSUNNY 76 56 49 NE6 30.30F  
MITCHELL FAIR 77 56 48 N8 30.30F  
PIERRE FAIR 78 55 44 CALM 30.29F  
MOBRIDGE FAIR 79 57 46 CALM 30.28F  
RAPID CITY FAIR 77 58 51 S15G21 30.31F  

 
 
***** SOME WEATHER IN NEARBY STATES *****  
 
CITY SKY/WX TMP DP RH WIND PRES REMARKS  
GLASGOW MT FAIR 87 44 22 SE21 30.20F  
GREAT FALLS MT FAIR 83 47 28 MISG 30.15F  
CHEYENNE WY PTSUNNY 74 57 55 SE14 30.39F  
SCOTTSBLUFF NE FAIR 79 63 57 E12 30.32F  
OMAHA NE FAIR 79 57 46 N13G22 30.24S  
DES MOINES IA FAIR 78 53 41 N15G22 30.18S  
DAVENPORT IA PTSUNNY 77 55 46 N12G29 30.12F  
CHICAGO IL FAIR 75 45 34 NE21G32 30.07S  
EAU CLAIRE WI FAIR 77 51 40 NW10 30.16F  
LA CROSSE WI FAIR 80 48 32 N12 30.16F  

 
 
***** SOME NATIONAL WEATHER *****  
 
CITY SKY/WX TMP DP RH WIND PRES REMARKS  
LA GUARDIA NY CLOUDY 86 75 69 SE10 29.71F HX 95  
RALEIGH NC CLOUDY 94 66 39 SW17 29.90F HX 97  
ATLANTA GA PTSUNNY 90 68 48 W8 29.97F HX 94  
NEW ORLEANS LA PTSUNNY 79 75 87 S7 29.97F  
OKLAHOMA CITY PTSUNNY 86 63 45 N17G25 30.12F  
ALBUQUERQUE NM PTSUNNY 87 53 31 E14 30.31F  
SALT LAKE CITY FAIR 98 49 18 E6 30.09F HX 95  
LOS ANGELES CA PTSUNNY 74 61 63 W10 29.99F  
BOISE ID FAIR 95 49 20 W7 29.98S HX 92  
SEATTLE WA FAIR 76 45 33 SW10 30.06F  

 
 
*** WEATHER ACROSS MANITOBA...SASKATCHEWAN AND ONTARIO ***  
***ONTARIO***  
 
CITY SKY/WX TMP DP RH WIND PRES REMARKS  
GERALDTON PTSUNNY 72 50 46 NW14G25 30.00S  
THUNDER BAY PTSUNNY 79 50 36 NW13G18 30.06S  
SIOUX LOOKOUT PTSUNNY 75 54 46 W13 30.10F  
TORONTO PTSUNNY 72 63 73 SE9G21 29.85F  
BIG TROUT LK SUNNY 66 46 48 NW9G21 30.01S  
PICKLE LAKE CLOUDY 68 50 52 NW12G22 30.05S  
DRYDEN PTSUNNY 77 52 41 W15G24 30.12F  
KENORA PTSUNNY 75 54 46 NW10G17 30.18F  

 
*** MANITOBA***  
 
CITY SKY/WX TMP DP RH WIND PRES REMARKS  
BRANDON MOSUNNY 79 55 44 W7 30.27F  
DAUPHIN SUNNY 79 57 47 NW8 30.23F  
ISLAND LAKE NOT AVBL  
PILOT MOUND N/A 75 55 50 NW7 N/A  
THE PAS SUNNY 82 55 39 W9G17 30.16F  
THOMPSON PTSUNNY 84 54 34 N8G21 30.05S  
WINNIPEG MOSUNNY 79 54 41 W9G17 30.22F  
LYNN LAKE SUNNY 84 52 32 W8 30.09S  
CHURCHILL PTSUNNY 72 54 53 NE7 30.01S  
GILLAM CLOUDY 77 57 50 W8 30.02F  

 
***SASKATCHEWAN***  
 
CITY SKY/WX TMP DP RH WIND PRES REMARKS  
ESTEVAN SUNNY 79 54 41 SW6 30.28F  
KINDERSLEY MOSUNNY 81 63 54 S13G29 30.17F  
LLOYDMINSTER MOSUNNY 77 59 53 SE14G23 30.17F  
PRINCE ALBERT MOSUNNY 77 57 50 S7 30.25S  
REGINA MOSUNNY 79 54 41 W3 30.27F  
YORKTON SUNNY 77 54 44 VRB5 30.27F  
 
CLICK HERE TO GO TO PREVIOUS BULLETINS.

The Nexlab ND Page
The Nexlab MN Page Main Text Page